Other Public Products
Issued by NWS Grand Forks, ND

Home | Current Version | Previous Version | Text Only | Print | Product List | Glossary Off
Versions: 1 2 3 4 5 6 7 8 9 10 11 12 13 14 15 16 17 18 19 20 21 22 23 24 25 26 27 28 29 30 31 32 33 34 35 36 37 38 39 40 41 42 43 44 45 46 47 48 49 50

000
FPUS83 KFGF 280510
OPUFGF
PRAIRIE TO PINES WEATHER ROUNDUP
NATIONAL WEATHER SERVICE EASTERN NORTH DAKOTA/GRAND FORKS ND
1100 PM CST TUE JAN 27 2015

 **SATELLITE DATA USED TO AUGMENT SKY COVER AT AUTOMATED STATIONS**
 *****  WEATHER ACROSS EASTERN NORTH DAKOTA  *****

CITY           SKY/WX    TMP DP  RH WIND       PRES   REMARKS
GRAND FORKS    CLOUDY    32  30  92 S14       29.89F WCI  22
GRAND FORKS AF CLOUDY    31  30  94 S14G22    29.89F WCI  21
GRAND CITY NWS NOT AVBL
BUXTON         NOT AVBL
DEVILS LAKE    CLOUDY    34  30  86 SE12      29.81R VSB 3/4
FARGO          CLOUDY    35  31  85 S20G26    29.91F WCI  24
WAHPETON ARPT  CLOUDY    32  32 100 SE18      29.93F WCI  20
$$

 *****  WEATHER ACROSS CENTRAL AND WESTERN NORTH DAKOTA  *****

CITY           SKY/WX    TMP DP  RH WIND       PRES   REMARKS
JAMESTOWN      FOG       33  33 100 S13       29.81F VSB 3/4 WCI  24
BISMARCK       MOCLDY    32  31  96 NE6       29.79S
MINOT          CLOUDY    30  28  92 NW3       29.76F
MINOT AFB      CLOUDY    30  30 100 N6        29.76F WCI  24
GARRISON         N/A     30  29  96 CALM      29.77S
WILLISTON      CLOUDY    32  30  92 CALM      29.77S
DICKINSON      CLOUDY    40  31  70 W5        29.76F
HETTINGER      CLOUDY    30  27  88 W3        29.79F
$$

 *****  OTHER OBSERVATIONS NORTHEAST NORTH DAKOTA  *****

CITY           SKY/WX    TMP DP  RH WIND       PRES   REMARKS
WALHALLA         N/A     32  32 100 SE10      29.88S FOG     WCI  24
LANGDON        FOG       32  32 100 SE15      29.82F VSB 1/4 WCI  22
CAVALIER       CLOUDY    32  32 100 S12G18    29.88F FOG     WCI  23
GRAFTON        NOT AVBL
CANDO          FOG       32  32 100 SE9       29.80F VSB 1/2 WCI  24
FORT TOTTEN    NOT AVBL
ROLLA          FOG       32  32 100 SE8       29.80S VSB<1/4 WCI  25
RUGBY          FAIR      28  28 100 E6        29.77F WCI  22
 ***** THE ABOVE OBSERVATIONS ARE NON NWS ARE NOT QUALITY
        CONTROLLED AND MAY MIS-REPORT RAIN FOR SNOW...
$$

 *****  OTHER OBSERVATIONS SOUTHEAST NORTH DAKOTA *****

CITY           SKY/WX    TMP DP  RH WIND       PRES   REMARKS
COOPERSTOWN    NOT AVBL
VALLEY CITY    FOG       32  32 100 S14       29.85S VSB 1/2 WCI  22
OAKES            N/A     32  32 100 SE7       29.86S
GWINNER        CLOUDY    34  34 100 CALM      29.89F VSB 1/4
SHEYENNE NWR     N/A     33  32  96 S15       29.95S WCI  23
BUFFALO        NOT AVBL
WYNDMERE         N/A     34  34 100 SE12        N/A
 ***** THE ABOVE OBSERVATIONS ARE NON NWS ARE NOT QUALITY
       CONTROLLED AND MAY MIS-REPORT RAIN FOR SNOW...
$$

  *****  WEATHER ACROSS NORTHERN MINNESOTA  *****

CITY           SKY/WX    TMP DP  RH WIND       PRES   REMARKS
FLAG ISLAND    CLOUDY    30  27  86 SE13      29.96S WCI  20
WARROAD        MOCLDY    28  25  86 SE6       29.95S WCI  22
ROSEAU         CLOUDY    30  25  80 S12       29.93F WCI  21
HALLOCK        CLOUDY    32  30  93 S17       29.90F WCI  21
THF RVR FALLS  CLOUDY    30  28  93 S13       29.94S WCI  20
HALSTAD          N/A     33  30  88 S18         N/A  WCI  22
FOSSTON        CLOUDY    27  25  93 SE7       29.94F WCI  19
BAUDETTE       MOCLDY    29  23  78 SE6       29.96F WCI  23
WASKISH        MOCLDY    28  27  93 SE8       29.97F WCI  20
CROOKSTON      CLOUDY    32  30  93 S15       29.93F WCI  22
$$
  *****  WEATHER ACROSS CENTRAL AND WEST MINNESOTA  *****

CITY           SKY/WX    TMP DP  RH WIND       PRES   REMARKS
BEMIDJI        MOCLDY    29  26  87 SE10      29.97S WCI  20
PARK RAPIDS    CLOUDY    31  27  85 S14       29.98F WCI  21
WADENA         CLOUDY    30  27  86 S15       30.00S WCI  19
DETROIT LAKES  CLOUDY    32  30  93 S17       29.95F WCI  21
MOORHEAD       CLOUDY    34  34 100 SE20G29   29.93F WCI  22
FERGUS FALLS   CLOUDY    32  30  93 SE20G25   29.98F WCI  20
ELBOW LAKE     CLOUDY    32  31  95 SE17      29.96F WCI  21
MORRIS MN      CLOUDY    34  32  93 SE20      29.96F FOG     WCI  22
STAPLES        CLOUDY    30  27  86 S10       30.02S WCI  21
WHEATON        PTCLDY    30  30 100 SE15      29.95F WCI  19
$$
  *****  WEATHER ELSEWHERE ACROSS MINNESOTA  *****

CITY           SKY/WX    TMP DP  RH WIND       PRES   REMARKS
DULUTH         CLOUDY    27  22  81 S9        30.08S WCI  18
INTRNTL FALLS  CLOUDY    29  25  85 SE5       30.00F WCI  24
ELY            CLOUDY    27  23  86 S3        30.06S
CLOQUET        CLOUDY    27  21  80 SE6       30.08S WCI  20
BRAINERD       CLOUDY    30  25  81 S12       30.05F WCI  20
HIBBING        CLOUDY    28  21  75 S7        30.04F WCI  21
ALEXANDRIA     CLOUDY    32  29  88 SE14      30.01S WCI  22
SAINT CLOUD    CLOUDY    31  26  82 S12       30.08F WCI  22
MINNEAPOLIS    CLOUDY    31  26  82 SE10      30.11F WCI  22
$$

  *****  WEATHER ACROSS SOUTH DAKOTA  *****

CITY           SKY/WX    TMP DP  RH WIND       PRES   REMARKS
SIOUX FALLS    CLEAR     36  31  82 S10G20    29.94F
BROOKINGS      NOT AVBL
WATERTOWN      CLEAR     34  32  92 S14       29.88F WCI  25
HURON          CLEAR     35  32  88 S14       29.85F
SISSETON         N/A     32  32 100 S14       29.91F WCI  22
ABERDEEN       PTCLDY    34  31  88 S8        29.86F
MITCHELL       CLEAR     37  33  85 S16       29.88F
PIERRE         CLOUDY    38  34  85 E7        29.79F
MOBRIDGE       MOCLDY    38  33  82 SE9       29.78F
RAPID CITY     MOCLDY    46  28  49 W10       29.80F
$$

  *****  SOME WEATHER IN NEARBY STATES *****

CITY           SKY/WX    TMP DP  RH WIND       PRES   REMARKS
GLASGOW MT     PTCLDY    38  32  79 CALM      29.76S
GREAT FALLS MT CLOUDY    49  28  44 W10       29.88R
CHEYENNE WY    PTCLDY    44  22  41 W10       30.04S
SCOTTSBLUFF NE   N/A    N/A N/A N/A MISG      29.95F
OMAHA NE       CLEAR     40  30  67 SE16      30.00F
DES MOINES IA  CLEAR     31  27  85 SE10      30.13F WCI  22
DAVENPORT IA   CLOUDY    26  21  81 S7        30.25R WCI  18
CHICAGO IL     MOCLDY    21  16  81 CALM      30.26R
EAU CLAIRE WI  CLOUDY    26  20  77 SE8       30.17F WCI  18
LA CROSSE WI   CLOUDY    29  22  75 SE8       30.21S WCI  21
$$

  *****  SOME NATIONAL WEATHER *****

CITY           SKY/WX    TMP DP  RH WIND       PRES   REMARKS
LA GUARDIA NY  CLOUDY    19   9  65 N13       29.85R WCI   6
RALEIGH NC     PTCLDY    31  12  45 NW5G16    30.00R
ATLANTA GA     PTCLDY    37  27  67 N14G21    30.10R
NEW ORLEANS LA CLEAR     56  40  55 N5        30.17R
OKLAHOMA CITY  PTCLDY    50  37  61 SW8       30.05F
ALBUQUERQUE NM CLEAR     43  28  55 SE5       30.25S
SALT LAKE CITY CLOUDY    44  37  76 N15       30.17R
LOS ANGELES CA CLEAR     59  55  87 CALM      30.17S
BOISE ID       CLOUDY    37  36  96 CALM      30.16S FOG
SEATTLE WA     CLOUDY    49  46  90 W9        30.22R
$$

*** WEATHER ACROSS MANITOBA...SASKATCHEWAN AND ONTARIO ***
                ***ONTARIO***

CITY           SKY/WX    TMP DP  RH WIND       PRES   REMARKS
GERALDTON      CLOUDY    23  19  86 SW8       30.07S WCI  14
THUNDER BAY    MOCLDY    25  23  93 CALM      30.14F
SIOUX LOOKOUT  FLURRIES  25  23  93 S5        30.02R WCI  19
TORONTO        CLEAR     12   1  62 N13       30.14S WCI  -3
BIG TROUT LK   CLOUDY    14  12  92 N7        30.02R WCI   4
PICKLE LAKE    NOT AVBL
DRYDEN         FLURRIES  25  25 100 S7        30.00S WCI  17
KENORA         CLOUDY    28  27  93 S9        29.96F WCI  20
$$
                *** MANITOBA***

CITY           SKY/WX    TMP DP  RH WIND       PRES   REMARKS
BRANDON        FOG       28  27  93 E16       29.84S VSB 1/2 WCI  17
DAUPHIN        CLOUDY    25  23  93 N15       29.93F WCI  12
ISLAND LAKE    FLURRIES  14  12  92 N7        30.06R WCI   4
PILOT MOUND    NOT AVBL
THE PAS        CLOUDY     7   3  85 NE6       30.11R WCI  -3
THOMPSON       CLEAR    -11 -15  84 VRB2      30.16R
WINNIPEG       CLOUDY    30  28  93 S7        29.92F WCI  23
LYNN LAKE      CLEAR    -15 -20  76 NW6       30.15R WCI -29
CHURCHILL      CRYSTALS -13 -18  77 NW28G35   30.11R BLWGSNOWWCI -43
GILLAM         CLEAR     -9 -17  70 NW9       30.15R WCI -27
$$
                ***SASKATCHEWAN***

CITY           SKY/WX    TMP DP  RH WIND       PRES   REMARKS
ESTEVAN        CLOUDY    28  27  93 E7        29.77S WCI  21
KINDERSLEY     CLOUDY    30  28  93 E15       29.76R WCI  19
LLOYDMINSTER   CLOUDY    25  23  93 NE6       29.84R WCI  18
PRINCE ALBERT  LGT SNOW  21  19  93 NE14      29.95R DRFTSNOWWCI   8
REGINA         MOCLDY    27  25  93 SE6       29.79S WCI  20


USA.gov is the U.S. government's official web portal to all federal, state and local government web resources and services.